Location: Chervonnoye
(48.6000°N, 34.4000°E)
Time: 00:54:21
(UTC+00:00)

NOAA 15 - Pass Details

Date: 05 December 2021
Orbit: 797 x 812 km, 98.7° (Epoch: 17 January)

Event Time Altitude Azimuth Distance (km) Brightness Sun altitude
Rises 17:01:16 0° 182° (S) 3,315 7.8 -31.0°
Reaches altitude 10° 17:03:42 10° 189° (S) 2,387 7.1 -31.4°
Maximum altitude 17:08:44 44° 261° (W) 1,101 5.6 -32.3°
Drops below altitude 10° 17:13:47 10° 334° (NNW) 2,394 7.3 -33.1°
Sets 17:16:15 0° 341° (NNW) 3,327 8.1 -33.5°
